User: anonymous   Login
Location: Caltech
(34.1382°N, 118.1253°W)
Time: 17:45:02
(UTC-07:00)
Language:

Cosmos 1626 - Orbit

View from above orbital plane
View from above orbital plane
View from above satellite
View from above satellite

Ground track
Ground track

The orbit data is extracted from the following two-line orbital elements,

1 15494U 85009A   17203.60874201 +.00000867 +00000-0 +36037-4 0  9990
2 15494 082.4783 214.2342 0000841 325.5338 034.5843 15.22471845773875
Epoch (UTC): 22 July 2017 14:36:35
Eccentricity: 0.0000841
inclination: 82.4783°
perigee height: 498 km
apogee height: 499 km
right ascension of ascending node: 214.2342°
argument of perigee: 325.5338°
revolutions per day: 15.22471845
mean anomaly at epoch: 34.5843°
orbit number at epoch: 77387

The dashed part of the orbit path shows where the satellite is in the earth's shadow,  

DLR